STARLINK-6040, 56809

Orbit data source: Space-Track

STARLINK-6040, 56809 is a payload satellite owned by SpaceX/Seattle (US) in LEO that was launched on Wed, 31 May 2023 UTC via an FALCON 9 launch vehicle from the Air Force Western Test Range (AFWTR). Payload-class satellites include a variety of spacecraft equipped with specific instruments for various scientific and technological missions. These include communications satellites like Starlink; space stations such as the ISS; scientific satellites like the Hubble; Earth observation satellites from companies like Planet Labs, Umbra, and HawkEye 360; GPS; miniature CubeSats for education and research; and military/defense satellites.

Loading next visibility...
Identifier
56809, 2023-078AU
Orbit
LEO
Country
Flag of USUS
Related business
Manufacturer
SpaceX/Seattle
Mission
Operational Commercial Communications
Bus & Motor
STARLINK, Unknown motor
Mass
305 kg wet, ~290 kg dry
Launch date (UTC)
2023-05-31 (3 years ago)
Launch vehicle
FALCON 9
Launch site
Air Force Western Test Range (AFWTR)
Object type
Payload
Rocket body
Debris
Shape & HBR
Box + 1 Pan, 10.1 m
Radar Cross Section
11.087 m², Large (>1 m²)

Expand to show TLE details & history
Last TLE update: 2 days ago

TLE from 2 days ago
0 STARLINK-6040
1 56809U 23078AU  26170.96368151  .00000285  00000-0  31649-4 0  9995
2 56809  70.0001  86.4363 0002998 267.0134  93.0682 14.98330585168008
Epoch: 2026-06-19T23:07Z
TLE epoch observation values (Epoch: 2026-06-19T23:07:42.082Z)
Latitude
-0.00003°
Longitude
-168.67417°
Altitude
574.59 km
Speed
7.574 km/s
True Right ascension
05h 45m 44s
True Declination
0° 00' 00"
Sunlit
Object was in daylight at epoch
Visualization orbit readout
Latitude
Unknown
Longitude
Unknown
Altitude
Unknown
Speed
Unknown
Apparent Right ascension
Unknown
Apparent Declination
Unknown
Sunlit
N/A
Visualization observer readout
Local Sidereal Time
21:24:54
Azimuth
Unknown
Elevation
Unknown
Doppler factor
Unknown
Orbital elements
Apogee altitude
572.085 km
Perigee altitude
567.919 km
Semi-major axis
6,948.139 km
Eccentricity
0.0003
Inclination
70.0001°
RAAN
86.4363°
Arg. of periapsis
267.0134°
True anomaly
93.1025°
Mean anomaly
93.0682°
Eccentric anomaly
93.08535°
Mean motion
3.74749 °/min
Orbital period
96.06 mins
BSTAR
0.000031649
Loading maneuver chart data...
Computing Atmospheric mass density...
Loading historical data...
Loading historical data...
Loading historical data...
Loading historical data...
Loading historical data...
Loading historical data...
Loading historical data...

Documentation

Showing up to 5 results
|